Lapse_Rate
7.2 7.3 7.3 7.2 7.1 7.1 7.2 6.8 6.7 6.6 6.6 6.6 6.7 6.6 6.6 6.6 6.7 6.7 6.7 6.7 6.6 6.6 6.5 6.4 6.3 6.3 6.2 6.1 6.0 5.9 5.8 5.7 5.6 5.6 5.6 5.6 5.6 5.6 5.6 5.6 5.4 5.4 5.4 5.3 5.5 5.5 5.5 5.6 5.5
6.8 6.9 6.9 7.1 7.1 7.1 6.9 6.7 6.8 6.8 6.7 6.7 6.7 6.6 6.6 6.6 6.6 6.5 6.7 6.6 6.5 6.5 6.4 6.4 6.3 6.2 6.2 6.0 6.0 5.9 5.8 5.8 5.7 5.6 5.5 5.5 5.6 5.6 5.6 5.8 5.7 5.6 5.6 5.5 5.5 5.5 5.5 5.5 5.6
6.5 6.6 6.6 6.9 7.0 7.1 6.9 6.8 6.9 7.0 7.1 7.2 7.1 7.1 7.1 6.9 6.6 6.4 6.4 6.5 6.6 6.6 6.6 6.6 6.4 6.3 6.3 6.2 6.1 6.0 5.9 5.8 5.7 5.7 5.5 5.4 5.4 5.6 5.7 5.8 5.8 5.8 5.7 5.6 5.7 5.7 5.7 5.8 5.9
6.2 6.3 6.4 6.5 6.4 6.4 6.4 6.4 6.6 6.7 6.9 7.2 7.3 7.5 7.3 7.0 6.8 6.7 6.5 6.6 6.7 6.7 6.7 6.8 6.8 6.7 6.6 6.4 6.2 6.0 5.8 5.8 5.7 5.7 5.6 5.5 5.5 5.6 5.6 5.8 5.9 5.9 5.9 5.8 5.8 5.8 5.8 5.9 5.9
6.0 6.0 6.2 6.4 6.5 6.4 6.2 6.1 6.2 6.3 6.4 6.5 6.7 6.9 7.0 6.9 6.8 6.8 6.9 6.8 6.8 6.8 6.7 6.7 6.7 6.7 6.7 6.6 6.5 6.3 6.1 5.8 5.6 5.6 5.5 5.4 5.4 5.5 5.6 5.7 6.0 6.0 6.1 6.0 5.9 6.0 5.9 5.8 5.8
6.0 6.0 6.0 6.0 6.2 6.3 6.2 6.4 6.3 6.2 6.4 6.6 6.7 6.7 6.8 6.7 6.5 6.3 6.3 6.4 6.5 6.5 6.5 6.5 6.6 6.6 6.6 6.5 6.4 6.6 6.3 6.1 6.0 5.9 5.8 5.7 5.6 5.7 5.7 5.7 5.8 5.9 5.8 5.9 5.9 5.9 6.0 5.9 5.7
5.8 5.9 6.0 6.1 6.0 5.9 5.9 6.1 6.1 6.2 6.2 6.4 6.5 6.5 6.6 6.5 6.4 6.3 6.3 6.2 6.2 6.2 6.0 6.0 6.2 6.5 6.7 6.7 6.7 6.5 6.4 6.3 6.2 6.1 6.0 5.9 5.9 5.9 5.9 5.9 5.8 5.8 5.8 5.8 5.8 5.9 6.0 5.9 5.7
5.6 5.6 5.9 6.1 6.2 6.0 5.9 5.8 6.0 6.1 5.9 5.9 5.9 6.1 6.1 6.1 6.1 6.1 6.2 6.3 6.3 6.2 6.0 5.9 6.1 6.2 6.1 6.1 6.2 6.3 6.4 6.4 6.3 6.2 6.2 6.0 6.0 6.0 6.0 5.9 5.9 5.8 6.0 5.9 5.8 5.8 5.9 5.9 5.7
5.4 5.4 5.8 5.9 6.0 5.9 6.0 5.9 5.9 6.0 6.0 5.9 5.7 5.7 5.9 6.0 6.0 6.0 6.0 6.1 6.1 6.1 6.0 6.1 6.0 6.0 6.1 6.3 6.2 6.0 5.9 6.0 6.2 6.3 6.2 6.1 6.1 6.0 6.0 6.1 5.9 5.8 5.9 6.1 6.0 6.0 5.9 5.8 5.6
5.4 5.4 5.3 5.3 5.3 5.4 5.5 5.5 5.6 5.9 5.9 5.6 5.6 5.4 5.7 6.0 6.2 6.3 6.2 6.1 6.1 6.0 5.9 6.0 6.0 6.0 5.9 5.8 6.1 6.3 6.1 5.9 5.8 5.9 6.2 6.1 6.0 6.0 6.1 5.9 5.9 5.9 6.0 6.1 6.1 6.1 5.9 5.8 5.4
5.8 5.7 5.7 5.4 5.4 5.5 5.7 5.8 5.8 6.2 6.7 5.7 5.3 5.4 5.3 5.4 5.7 6.0 6.2 6.3 6.2 6.1 6.0 5.8 5.7 5.8 5.9 5.9 5.9 6.0 6.0 6.1 5.8 5.7 5.8 6.0 6.0 6.0 6.0 6.0 5.8 5.6 5.7 5.9 6.1 6.0 5.9 5.9 5.6
5.6 5.7 5.6 5.5 5.2 5.5 5.6 5.9 5.8 5.7 6.6 5.6 5.4 5.5 5.8 5.9 5.9 6.0 6.2 6.2 6.2 6.2 6.1 6.0 5.9 5.9 5.8 6.1 6.0 5.9 6.0 5.8 5.7 5.8 5.9 5.8 5.9 6.0 5.9 5.9 5.9 5.8 6.0 6.1 6.2 6.0 6.0 5.8 5.7
5.8 6.0 5.8 5.9 5.7 5.4 5.3 5.6 5.2 6.1 5.6 5.8 5.9 5.8 5.7 5.7 6.0 6.2 6.3 6.2 6.2 6.4 6.1 6.1 5.8 5.9 5.9 6.0 5.8 5.7 6.0 5.9 5.6 5.9 5.9 5.8 5.8 5.8 5.8 5.9 6.0 6.2 6.1 6.2 6.3 6.1 5.9 5.9 5.7
5.8 6.0 6.1 6.3 6.0 5.5 5.4 5.4 5.4 5.8 5.9 5.9 5.8 5.8 6.0 6.2 5.9 5.9 6.4 6.7 6.5 6.6 6.6 6.2 6.0 5.9 5.9 6.0 5.9 5.5 5.4 5.5 5.9 5.9 5.8 5.7 5.8 5.7 5.8 5.9 6.1 6.2 6.3 6.3 6.1 5.9 5.7 5.7 5.6
5.4 5.5 5.7 6.2 6.1 5.7 5.5 5.6 5.7 5.7 5.7 5.9 5.9 6.0 6.0 6.1 5.8 5.6 5.6 5.8 6.5 6.8 6.7 6.5 6.5 6.1 6.1 6.0 5.9 5.6 5.6 5.6 5.6 5.9 5.9 5.8 5.6 5.6 5.8 5.9 5.8 6.3 6.2 6.2 6.0 5.7 5.6 5.8 5.7
5.4 5.4 5.4 5.7 5.8 5.6 5.6 5.7 5.5 5.5 5.4 5.4 5.6 5.8 5.9 6.1 5.9 5.7 5.5 5.5 6.0 6.8 6.9 6.7 6.7 6.5 6.2 6.2 6.0 5.8 5.6 5.5 5.5 5.9 6.1 5.9 5.6 5.5 5.7 5.9 6.0 6.1 6.1 6.1 6.1 6.0 5.9 5.7 5.5
5.5 5.6 5.5 5.4 5.3 5.2 5.4 5.5 5.6 5.3 5.3 5.5 5.9 5.8 5.7 5.9 6.0 6.1 6.1 6.1 6.5 6.8 7.3 7.0 6.8 6.8 6.6 6.4 6.1 6.1 5.9 5.9 5.6 5.7 6.0 6.1 6.1 5.8 5.9 5.9 5.9 6.1 6.0 5.9 6.0 6.0 5.8 5.6 5.4
5.4 5.2 5.0 4.9 5.0 5.1 5.0 5.1 5.2 5.3 5.4 5.7 5.4 5.7 6.0 6.2 6.5 6.8 6.7 6.6 6.7 7.3 7.5 7.4 7.1 7.0 6.7 6.8 6.6 6.3 6.2 6.2 6.0 5.7 6.1 6.1 5.9 5.7 5.6 5.7 5.7 5.6 5.7 5.6 5.7 5.7 5.5 5.4 5.4
4.8 4.7 4.8 5.1 5.4 4.9 5.1 5.1 5.2 5.4 5.7 5.5 5.7 6.0 6.1 6.3 6.6 7.1 7.5 7.6 7.6 7.6 7.6 7.5 7.4 7.2 7.0 7.1 6.9 6.8 6.8 6.3 6.2 5.9 6.1 6.1 6.1 5.9 5.6 5.6 5.5 5.6 5.7 5.6 5.5 5.4 5.3 5.3 5.4
5.0 4.9 5.1 5.3 5.4 4.9 5.2 5.3 5.6 5.8 5.7 5.9 6.2 6.4 6.2 6.4 6.9 7.4 7.9 7.9 8.1 7.9 7.8 7.6 7.7 7.7 7.6 7.3 7.2 6.9 7.0 6.3 6.3 6.1 6.3 6.3 6.2 6.0 5.8 5.6 5.5 5.6 5.6 5.4 5.3 5.3 5.3 5.5 5.5
5.2 5.3 5.7 5.3 5.2 5.3 5.3 5.4 5.2 5.8 6.2 6.1 6.5 6.6 6.5 6.4 7.0 7.6 8.1 8.1 8.0 8.0 8.2 8.1 8.1 7.8 7.9 7.7 7.5 7.2 6.8 6.3 6.4 6.5 6.3 6.4 6.2 6.0 5.9 5.7 5.5 5.4 5.5 5.4 5.4 5.4 5.4 5.4 5.4
5.0 5.8 5.7 5.6 5.5 5.3 5.2 5.3 5.1 6.0 6.4 6.6 6.8 7.4 7.2 7.2 7.0 7.1 7.9 8.2 8.1 8.0 8.4 8.5 8.1 8.0 8.0 8.2 8.0 7.6 7.5 7.1 7.1 6.6 6.2 6.5 6.2 6.0 5.9 5.8 5.6 5.6 5.5 5.5 5.5 5.5 5.5 5.5 5.4
5.7 5.9 6.1 6.2 6.0 5.9 5.4 6.0 6.1 6.1 6.3 6.6 6.9 7.3 7.5 7.5 7.2 7.1 7.2 7.8 8.2 8.5 8.3 8.3 8.4 7.9 7.9 8.3 8.5 8.1 7.7 7.4 7.0 6.5 6.5 6.7 6.5 6.2 6.0 5.8 5.8 5.8 5.7 5.6 5.6 5.7 5.6 5.4 5.3
6.5 6.5 6.5 6.6 6.4 6.0 6.1 6.7 6.2 6.5 6.7 6.7 7.0 7.3 7.6 7.7 7.4 7.2 7.2 7.6 8.0 8.4 8.5 8.2 8.0 8.0 7.6 7.8 8.5 8.6 8.3 7.8 7.2 6.8 6.8 6.7 6.5 6.4 6.3 6.2 6.0 5.9 5.8 5.8 5.7 5.6 5.4 5.3 5.3
6.8 6.8 6.7 6.9 6.3 6.9 6.8 6.7 6.9 7.0 6.5 6.7 6.7 7.3 7.7 7.8 7.9 7.4 7.8 7.7 8.0 8.7 8.7 8.2 8.3 8.3 8.1 8.1 8.0 7.4 7.7 7.6 7.0 6.9 6.9 6.7 6.6 6.5 6.3 6.4 6.2 5.9 5.8 6.0 5.6 5.3 5.3 5.4 5.7
6.7 6.8 7.2 6.7 6.8 6.7 6.7 6.5 6.9 6.8 6.8 7.1 6.9 6.7 6.8 6.9 7.3 7.5 7.3 7.3 7.6 7.8 8.6 8.3 8.3 8.4 8.2 8.1 8.0 7.6 7.1 6.6 6.6 6.3 6.8 6.6 6.4 6.4 6.4 6.3 6.2 5.9 5.9 5.8 5.5 5.3 5.4 5.7 6.1
6.4 6.5 6.6 6.7 6.3 5.8 6.3 7.0 6.4 6.5 7.2 7.1 7.0 6.3 6.5 6.8 6.9 7.3 7.5 7.3 7.1 7.6 8.3 8.3 8.3 8.2 8.1 8.1 7.9 7.6 7.0 6.3 5.9 5.7 6.1 6.1 6.5 6.4 6.4 6.2 6.2 6.1 5.9 5.6 5.4 5.3 5.4 5.6 5.9
6.5 6.4 6.4 6.2 5.6 5.9 6.6 6.2 6.9 6.8 6.8 6.5 6.6 6.6 6.7 6.7 7.0 6.7 6.7 6.9 6.9 7.1 7.5 8.1 8.0 8.0 8.0 7.8 7.8 7.7 7.2 6.3 6.0 6.5 5.9 5.5 6.3 6.2 6.3 6.1 6.2 6.1 5.8 5.6 5.3 5.3 5.3 5.7 5.9
6.3 6.2 6.0 5.9 6.0 6.3 6.6 6.8 6.5 7.0 6.9 6.7 6.8 6.6 6.1 6.1 6.2 6.8 6.5 6.4 6.7 6.3 7.1 8.0 8.1 7.7 7.6 7.6 7.5 7.3 6.9 6.2 5.7 5.7 5.3 5.8 6.2 6.1 6.2 6.2 6.1 6.1 5.9 5.5 5.4 5.2 5.3 5.6 5.8
5.8 5.7 5.6 5.9 5.8 5.8 5.6 5.5 6.1 6.7 6.5 6.2 6.2 6.1 6.0 5.9 5.8 5.6 6.2 5.9 6.4 6.9 7.1 7.1 6.7 7.0 6.9 7.1 6.9 6.9 6.9 6.5 5.8 5.4 5.5 6.0 6.3 6.2 6.2 6.3 6.0 6.0 5.8 5.6 5.3 5.2 5.3 5.4 5.5
Wind_Speed
3 4 2 4 3 2 0 1 2 4 1 2 4 2 2 1 3 2 3 10 7 14 15 18 14 16 14 13 13 13 12 10 13 10 10 10 11 11 11 10 11 11 11 9 10 10 14 16 15
3 1 3 2 3 2 1 2 3 1 3 5 2 3 0 1 0 3 6 6 12 18 18 18 16 14 13 13 12 14 13 13 12 9 8 9 11 11 11 11 11 10 10 10 10 12 14 14 14
2 3 2 3 2 3 3 3 3 5 8 3 1 1 1 2 0 4 1 12 16 17 19 19 18 16 15 15 12 11 13 15 14 9 7 6 10 11 11 10 11 11 10 10 11 12 13 13 13
2 3 3 2 1 3 2 1 4 8 1 1 1 1 2 2 2 5 10 15 15 14 17 18 18 17 16 15 14 10 9 11 12 9 6 3 11 11 11 12 12 11 10 10 10 11 11 12 12
3 2 3 1 3 3 4 3 3 3 5 2 2 2 2 2 3 8 12 14 16 15 17 17 18 17 15 15 14 12 11 11 10 8 6 4 7 8 10 12 13 12 11 10 10 10 9 10 11
3 1 2 2 3 3 4 4 2 3 2 2 1 1 2 2 4 7 10 10 10 14 16 16 18 18 17 16 15 15 14 12 11 10 10 8 9 9 9 12 11 12 10 10 9 9 9 10 9
4 3 2 2 2 4 2 3 0 2 2 2 2 2 2 2 4 9 9 10 11 12 12 13 15 17 15 16 15 14 14 13 13 12 10 7 10 11 10 12 11 12 10 10 9 8 8 9 8
3 2 3 4 2 3 2 4 1 3 2 7 2 1 3 4 4 8 7 9 10 11 12 11 14 15 14 14 13 13 14 13 12 12 11 8 5 9 11 12 12 12 11 10 9 8 7 10 8
2 2 2 3 5 1 3 5 3 2 2 3 2 2 3 2 8 9 6 6 7 9 12 12 12 14 14 14 14 14 13 13 13 11 9 8 7 10 11 10 12 12 11 10 10 9 9 8 8
3 1 3 1 2 1 5 4 8 5 4 3 4 2 3 5 7 10 11 11 12 13 13 11 12 12 14 14 13 14 13 12 11 10 9 8 8 9 9 9 10 10 12 11 10 10 9 7 6
3 4 3 2 4 2 4 6 2 4 3 3 6 7 4 1 7 11 12 12 13 11 10 12 12 12 12 9 12 10 10 9 10 10 9 7 7 7 8 7 8 8 10 9 9 9 6 7 5
2 5 4 4 0 3 3 2 3 5 10 7 7 7 4 6 9 13 14 14 12 12 12 13 13 11 12 11 8 12 8 10 8 9 10 9 6 7 6 5 7 9 10 10 10 7 6 7 5
4 4 4 5 7 7 2 7 5 11 13 12 9 11 14 11 12 12 14 11 11 13 14 15 14 13 11 12 7 8 7 8 12 10 11 10 7 5 6 6 6 6 8 8 8 7 7 6 3
4 4 6 7 7 5 7 6 3 0 4 10 7 8 9 10 11 10 11 14 13 15 16 16 17 15 12 12 12 9 9 11 10 10 11 12 9 7 5 5 4 4 4 5 6 6 4 4 3
3 6 7 5 2 3 3 2 5 2 4 12 10 10 8 9 9 12 12 13 15 15 16 18 17 16 15 14 11 8 10 12 8 9 10 11 11 9 7 5 3 5 8 9 7 7 5 4 3
4 2 3 5 5 2 1 6 3 4 10 14 14 14 7 8 9 11 11 12 14 17 17 17 14 17 17 14 10 8 9 9 8 9 9 12 13 10 8 4 4 8 9 9 6 5 4 3 2
2 6 2 6 3 4 3 4 7 17 12 13 14 15 15 13 12 12 14 13 12 15 16 16 16 18 17 14 10 10 9 7 9 9 9 12 11 10 7 4 4 8 6 5 6 3 3 3 3
3 4 3 4 4 9 14 18 9 11 10 13 13 14 14 15 15 18 20 16 13 11 14 15 14 16 16 10 9 7 7 7 8 6 8 11 10 10 7 5 6 7 5 5 5 5 2 2 3
1 3 10 7 11 7 12 15 12 14 14 10 10 13 13 15 15 16 17 17 14 11 10 16 16 18 11 9 8 8 8 7 6 6 10 10 10 10 8 5 6 6 6 6 7 5 5 2 3
5 6 11 9 8 4 10 14 13 13 2 10 12 14 17 19 20 19 20 19 17 15 13 12 17 18 16 10 9 5 7 5 5 6 7 10 11 11 8 7 6 7 6 7 7 6 3 2 3
6 8 5 11 5 5 5 6 2 1 10 10 13 12 14 17 19 20 21 20 20 18 15 13 15 17 17 17 8 5 7 5 3 5 6 7 11 11 10 9 7 8 6 6 6 6 6 4 3
6 8 13 8 3 5 2 8 6 2 6 13 16 16 16 19 17 17 20 20 22 21 17 12 13 15 14 16 14 16 11 8 6 7 6 7 10 10 10 10 8 8 5 7 6 5 4 4 5
6 4 4 4 4 3 4 4 4 1 4 12 14 15 16 16 17 19 20 19 20 19 17 11 7 10 10 14 14 12 12 6 8 8 10 9 8 9 10 10 8 8 5 6 7 8 7 4 4
3 3 1 1 2 8 12 9 10 2 3 7 14 15 16 17 17 18 18 19 20 20 18 15 3 5 8 9 11 15 14 12 10 10 8 7 6 5 7 9 7 7 7 7 7 6 6 4 3
2 2 3 5 4 8 1 6 5 6 5 5 10 14 17 17 17 18 22 20 19 23 19 15 10 3 5 8 7 9 10 14 16 14 9 10 7 4 7 8 9 8 8 6 5 6 4 4 4
2 4 5 7 5 5 4 6 3 7 4 6 7 11 16 19 18 17 16 17 17 20 18 16 10 4 3 6 7 7 8 5 6 4 8 8 7 7 9 8 9 8 8 5 5 3 3 4 3
2 3 2 2 2 4 6 2 6 3 5 9 13 15 17 18 19 18 19 16 19 18 20 12 10 5 3 3 6 9 6 9 14 7 4 4 7 6 9 9 9 7 5 7 6 4 5 4 4
2 3 2 3 4 5 5 4 4 1 8 12 16 18 18 17 16 18 15 14 15 17 16 14 10 6 6 6 6 8 6 9 8 10 7 5 7 9 10 9 6 7 7 7 6 5 4 5 4
0 2 5 1 3 3 4 5 3 2 5 11 13 16 17 17 16 15 15 11 9 11 13 12 9 6 5 7 8 9 9 9 4 8 8 8 8 9 9 8 7 8 8 7 6 6 5 6 5
2 1 3 5 5 1 1 11 3 8 12 19 20 17 15 16 15 16 15 14 9 10 11 11 5 5 3 5 8 8 9 8 9 8 7 10 9 6 6 7 8 8 8 8 7 7 5 5 5
Wind_Direction
22 33 61 48 78 51 277 43 301 324 354 338 313 315 57 145 190 244 350 179 168 155 166 166 161 153 153 146 161 158 154 153 128 133 133 130 122 122 120 111 104 100 98 93 78 70 80 85 81
47 37 49 90 91 103 247 246 201 254 319 291 276 312 340 328 127 105 133 185 164 155 163 164 166 155 158 163 176 160 152 152 137 135 138 138 130 126 130 123 110 100 98 96 77 79 80 84 82
110 45 75 79 96 170 174 208 249 290 298 232 241 278 168 356 117 178 200 158 157 162 163 165 165 163 176 186 173 145 163 154 142 147 157 164 145 134 134 130 122 115 109 98 87 87 90 86 80
68 27 68 84 206 265 247 38 303 314 312 212 128 239 215 216 185 177 152 156 161 165 165 164 165 171 167 152 156 152 133 133 137 150 163 204 155 144 143 142 133 124 117 112 96 87 94 91 84
37 59 65 64 252 251 233 251 293 297 308 335 350 336 306 9 58 135 155 163 166 168 170 169 171 175 171 170 170 172 166 156 153 155 152 180 151 153 158 151 141 135 133 123 113 101 99 94 89
61 87 90 218 247 248 264 249 236 231 260 290 155 174 261 10 150 156 156 166 171 169 172 176 177 180 179 179 178 177 175 173 170 173 173 190 175 163 164 158 153 143 139 133 123 110 105 112 101
118 112 188 193 252 297 240 341 307 323 304 355 328 289 300 279 177 160 162 164 170 174 177 183 183 186 184 183 183 182 183 182 182 184 187 191 179 171 164 163 163 151 144 141 134 127 115 131 115
101 81 146 213 190 264 346 344 130 36 341 324 318 351 343 8 156 150 160 168 176 178 180 186 187 188 189 193 189 190 191 190 189 191 193 184 172 175 171 171 174 163 150 144 140 132 126 128 128
129 67 217 239 168 199 25 10 334 299 255 326 304 264 299 327 148 149 161 180 189 191 190 188 191 192 189 190 190 192 198 198 194 196 195 197 187 184 180 183 176 173 157 149 148 143 141 132 130
86 132 232 251 231 321 337 6 328 323 339 296 297 250 301 151 181 190 193 191 201 200 197 196 196 196 193 196 195 195 197 203 199 200 198 191 196 185 179 182 183 182 161 160 157 153 144 134 149
162 216 190 219 225 245 306 312 284 289 311 235 296 298 312 213 200 220 220 215 209 203 199 201 202 203 201 199 194 197 198 199 203 199 192 193 188 189 184 178 181 183 173 169 156 147 160 155 159
299 268 240 295 292 316 267 285 263 235 269 257 267 279 269 257 237 224 227 220 211 206 211 202 203 204 210 205 201 199 199 196 200 199 195 190 195 192 191 193 189 187 176 174 168 161 149 155 154
201 240 247 244 281 270 231 244 248 261 277 300 289 281 276 269 258 246 238 227 218 218 214 209 203 206 203 206 207 208 201 198 206 202 203 200 199 201 192 195 208 208 182 170 160 152 156 151 174
199 236 258 272 247 239 256 272 157 351 334 321 336 311 282 277 268 282 265 248 225 223 218 210 212 207 200 205 205 208 204 206 206 213 206 207 206 206 201 204 207 199 183 143 153 156 154 138 172
324 313 329 265 278 266 154 250 226 273 342 323 318 309 306 290 286 254 253 260 258 246 230 211 206 207 203 203 208 203 205 204 209 209 212 209 209 213 206 220 176 174 159 143 134 135 134 142 120
331 37 327 327 351 4 170 285 289 328 343 323 309 311 301 301 288 290 283 256 259 247 226 222 212 201 205 198 200 203 207 204 210 211 202 206 208 199 206 197 170 150 145 144 137 133 127 117 129
360 270 238 302 348 337 17 288 285 311 322 309 300 313 329 335 333 331 306 285 267 243 229 218 207 206 203 205 195 198 198 195 206 201 197 202 200 195 187 170 151 149 140 132 138 123 129 137 126
260 268 279 275 314 305 292 284 299 289 290 289 314 337 349 346 341 337 335 318 294 259 245 225 207 203 198 192 191 197 195 197 186 190 193 188 187 171 164 156 151 152 138 134 136 128 102 143 137
93 263 276 257 264 287 267 277 273 282 295 324 18 1 351 348 332 342 344 340 321 282 246 228 211 204 186 182 180 199 192 181 190 184 189 193 174 163 165 158 152 154 151 150 149 125 138 121 147
227 266 273 284 268 213 271 279 271 264 314 67 22 5 356 349 351 353 350 347 340 318 276 234 222 204 195 189 192 183 168 178 179 176 179 190 168 159 159 167 163 158 144 152 162 152 137 129 168
232 242 248 264 327 258 292 279 252 173 111 52 31 11 359 353 348 353 355 349 343 335 321 262 223 217 201 193 164 108 113 105 136 173 170 180 175 165 165 171 167 158 149 161 171 166 165 154 187
260 233 251 261 291 272 289 293 255 211 115 23 10 7 1 354 349 353 358 354 349 340 331 288 238 216 211 186 182 176 180 170 185 175 164 150 159 159 161 167 164 161 155 162 169 172 174 156 165
239 3 259 248 234 310 237 243 263 320 7 3 2 2 2 1 354 355 2 358 355 347 337 313 255 211 199 194 187 176 184 164 146 151 150 150 152 157 160 168 163 160 161 163 162 175 187 192 161
312 299 291 64 179 248 231 211 273 26 22 358 3 2 360 3 4 3 1 6 3 354 347 343 334 178 183 191 186 185 173 147 146 152 155 159 158 153 161 162 168 164 167 170 176 182 200 196 144
169 140 272 245 213 254 121 202 263 122 84 32 0 357 355 1 5 6 7 358 5 354 348 343 348 79 139 183 180 194 188 161 157 155 159 160 158 166 168 163 164 173 168 162 163 192 197 171 148
212 203 191 225 242 299 313 243 173 135 88 42 16 1 1 2 359 5 11 356 356 355 344 342 348 20 122 140 157 168 163 133 97 124 154 164 168 166 160 163 159 158 155 139 167 164 134 157 153
166 201 1 41 50 254 247 210 188 168 26 21 9 357 358 356 352 351 352 0 359 355 344 342 342 18 41 108 126 138 138 142 121 136 57 173 151 150 151 160 155 146 145 157 136 144 150 150 152
144 130 140 58 239 239 236 255 242 55 356 350 355 351 345 340 342 341 346 351 352 343 337 338 352 26 60 82 102 107 125 109 129 120 112 199 147 148 149 151 137 148 151 148 137 145 152 137 129
237 192 66 101 209 252 280 265 132 144 333 338 336 335 331 330 330 330 326 332 332 330 322 341 353 4 71 87 96 120 121 102 116 120 152 168 143 147 153 146 151 156 149 146 130 139 142 133 130
330 12 171 213 209 184 44 269 125 350 337 340 331 325 320 316 311 313 311 311 318 322 332 338 337 339 61 115 136 132 117 111 141 126 161 148 133 131 141 148 163 154 141 145 143 142 140 140 147